Torna al catalogo

SL-12 R/B(2)

AttivoGEO
NORAD 19776·ROCKET BODY·🇷🇺 Russia

Lanciato Jan 26, 1989 da Baikonur Cosmodrome

Loading…

TLE

AggiornatoSource: Space-Track

Epoca: Sep 13, 2026, 17:35 UTC

1 19776U 89004F   26256.73308622 -.00000039  00000-0  00000-0 0  9996
2 19776  12.7161 334.0384 0021582 135.5030 230.2573  0.97992551119268

Traccia SL-12 R/B(2) in tempo reale con AllMySat

Download on the App Store